Terminal Aerodrome Forecast
Issued by NWS

Home | Current Version | Previous Version | Text Only | Print | Product List | Glossary On
Versions: 1 2 3 4 5 6 7 8 9 10 11 12 13 14 15 16 17 18 19 20 21
000
FTUS43 KBIS 242300 RRA
TAFMOT
TAF
KMOT 242341Z 2500/2524 28007KT P6SM BKN150
     FM250100 30007KT P6SM SCT150
      TEMPO 2506/2507 SCT008 BKN015
     FM250700 31010KT 5SM -SHSN BR BKN009 OVC012
     FM251700 31014G18KT P6SM -SHSN OVC018=

USA.gov is the U.S. government's official web portal to all federal, state and local government web resources and services.